星链-5169 (STARLINK-5169 )

导读 | 豆包AI

STARLINK-5169是美国太空探索技术公司星链互联网卫星星座的一员,于2022年10月20日发射入轨。星链计划旨在搭建全球卫星互联网,为全球提供高速互联网接入服务。该卫星服役期间为覆盖区域提供网络信号,目前已在轨道运行超过三年,是星链低轨卫星星座的组成部分,支撑星座的全球组网覆盖能力。

Basic Information
目录编号:
54060
目录名称:
STARLINK-5169
国际标识:
2022-136K
轨道中心:
EARTH
卫星名称:
星链-5169
卫星全名:
星链-5169 (STARLINK-5169 )
卫星状态:
在轨 (已飞行1242 天)
发射日期:
2022-10-20 UTC
国别 :
美国 (US)
星等 :
--
Orbit Information
数据来源 国际轨道数据 AOE轨道数据
星历时间 2026-03-15T05:12:29+0800
14小时前
查看轨道信息
2026-03-11T17:00:00+0800
4天前
查看轨道信息
半长轴 6917.889km 6917.82km
偏心率 0.0001401 0.0001385
轨道倾角 53.216° 53.216°
近地点辐角 90.017° 82.679°
升交点赤经 290.463° 306.213°
平近点角 270.098° 288.608°
近地点 538.782km 538.724km
远地点 540.722km 540.642km
周期 95.438分钟 95.436分钟
每日圈数 15.088373 15.088598
Detailed Information
固有亮度:
5
最大亮度:
2.5
卫星平台:
Starlink v1.5
覆盖范围:
全球
运营商:
太空探索技术公司
运营商所在国:
美国
制造商(研发单位):
太空探索技术公司
制造商所在国:
美国
使用方式:
暂无
Satellite Introduction
星链(Starlink)计划是由太空探索技术公司(SpaceX)提出的一个巨型低轨卫星互联网星座项目,计划在2019年至2024年间在太空搭建由约1.2万颗卫星组成的“星链”网络,其中1584颗将部署在地球上空550千米处的近地轨道,并从2020年开始工作。该卫星仍在工作。
2D Orbit Map
3D Orbit Map
Orbit Altitude Analysis Chart
Orbit Inclination Analysis Chart
Orbit Comprehensive Analysis Chart
View Comprehensive Chart